<?xml version="1.0"?>
<gpx xmlns="http://www.topografix.com/GPX/1/1" xmlns:xsi="http://www.w3.org/2001/XMLSchema-instance" version="1.1" creator="GPX RubyGem 1.0.0 -- http://dougfales.github.io/gpx/" xsi:schemaLocation="http://www.topografix.com/GPX/1/1 http://www.topografix.com/GPX/1/1/gpx.xsd">
  <metadata>
    <name/>
    <time>2026-05-07T09:55:35+00:00</time>
    <bound minlat="90.0" minlon="180.0" maxlat="-90.0" maxlon="-180.0"/>
  </metadata>
  <trk>
    <name/>
    <trkseg>
      <trkpt lat="46.959941" lon="10.401641">
        <time>1970-01-01T00:00:00+00:00</time>
        <ele>1710.0</ele>
      </trkpt>
      <trkpt lat="46.960144" lon="10.401547">
        <time>1970-01-01T00:00:00+00:00</time>
        <ele>1712.0</ele>
      </trkpt>
      <trkpt lat="46.960142" lon="10.401997">
        <time>1970-01-01T00:00:00+00:00</time>
        <ele>1713.0</ele>
      </trkpt>
      <trkpt lat="46.960145" lon="10.402454">
        <time>1970-01-01T00:00:00+00:00</time>
        <ele>1716.0</ele>
      </trkpt>
      <trkpt lat="46.960189" lon="10.402985">
        <time>1970-01-01T00:00:00+00:00</time>
        <ele>1717.0</ele>
      </trkpt>
      <trkpt lat="46.960291" lon="10.402986">
        <time>1970-01-01T00:00:00+00:00</time>
        <ele>1718.0</ele>
      </trkpt>
      <trkpt lat="46.960336" lon="10.403041">
        <time>1970-01-01T00:00:00+00:00</time>
        <ele>1719.0</ele>
      </trkpt>
      <trkpt lat="46.960655" lon="10.403735">
        <time>1970-01-01T00:00:00+00:00</time>
        <ele>1716.0</ele>
      </trkpt>
      <trkpt lat="46.960685" lon="10.40376">
        <time>1970-01-01T00:00:00+00:00</time>
        <ele>1716.0</ele>
      </trkpt>
      <trkpt lat="46.960729" lon="10.403755">
        <time>1970-01-01T00:00:00+00:00</time>
        <ele>1717.0</ele>
      </trkpt>
      <trkpt lat="46.960856" lon="10.403683">
        <time>1970-01-01T00:00:00+00:00</time>
        <ele>1721.0</ele>
      </trkpt>
      <trkpt lat="46.960933" lon="10.403682">
        <time>1970-01-01T00:00:00+00:00</time>
        <ele>1723.0</ele>
      </trkpt>
      <trkpt lat="46.961136" lon="10.403678">
        <time>1970-01-01T00:00:00+00:00</time>
        <ele>1728.0</ele>
      </trkpt>
      <trkpt lat="46.961313" lon="10.403768">
        <time>1970-01-01T00:00:00+00:00</time>
        <ele>1734.0</ele>
      </trkpt>
      <trkpt lat="46.961397" lon="10.403863">
        <time>1970-01-01T00:00:00+00:00</time>
        <ele>1735.0</ele>
      </trkpt>
      <trkpt lat="46.961703" lon="10.404315">
        <time>1970-01-01T00:00:00+00:00</time>
        <ele>1737.0</ele>
      </trkpt>
      <trkpt lat="46.961833" lon="10.404708">
        <time>1970-01-01T00:00:00+00:00</time>
        <ele>1740.0</ele>
      </trkpt>
      <trkpt lat="46.961887" lon="10.404782">
        <time>1970-01-01T00:00:00+00:00</time>
        <ele>1744.0</ele>
      </trkpt>
      <trkpt lat="46.96193" lon="10.404756">
        <time>1970-01-01T00:00:00+00:00</time>
        <ele>1748.0</ele>
      </trkpt>
      <trkpt lat="46.961941" lon="10.404682">
        <time>1970-01-01T00:00:00+00:00</time>
        <ele>1748.0</ele>
      </trkpt>
      <trkpt lat="46.96182" lon="10.40409">
        <time>1970-01-01T00:00:00+00:00</time>
        <ele>1754.0</ele>
      </trkpt>
      <trkpt lat="46.961533" lon="10.403434">
        <time>1970-01-01T00:00:00+00:00</time>
        <ele>1758.0</ele>
      </trkpt>
      <trkpt lat="46.961209" lon="10.402954">
        <time>1970-01-01T00:00:00+00:00</time>
        <ele>1759.0</ele>
      </trkpt>
      <trkpt lat="46.961025" lon="10.402641">
        <time>1970-01-01T00:00:00+00:00</time>
        <ele>1754.0</ele>
      </trkpt>
      <trkpt lat="46.961051" lon="10.402376">
        <time>1970-01-01T00:00:00+00:00</time>
        <ele>1760.0</ele>
      </trkpt>
      <trkpt lat="46.961195" lon="10.401745">
        <time>1970-01-01T00:00:00+00:00</time>
        <ele>1774.0</ele>
      </trkpt>
      <trkpt lat="46.961372" lon="10.401084">
        <time>1970-01-01T00:00:00+00:00</time>
        <ele>1779.0</ele>
      </trkpt>
      <trkpt lat="46.9616" lon="10.400521">
        <time>1970-01-01T00:00:00+00:00</time>
        <ele>1784.0</ele>
      </trkpt>
      <trkpt lat="46.961683" lon="10.400015">
        <time>1970-01-01T00:00:00+00:00</time>
        <ele>1784.0</ele>
      </trkpt>
      <trkpt lat="46.961811" lon="10.399707">
        <time>1970-01-01T00:00:00+00:00</time>
        <ele>1790.0</ele>
      </trkpt>
      <trkpt lat="46.962001" lon="10.39916">
        <time>1970-01-01T00:00:00+00:00</time>
        <ele>1797.0</ele>
      </trkpt>
      <trkpt lat="46.962111" lon="10.399042">
        <time>1970-01-01T00:00:00+00:00</time>
        <ele>1802.0</ele>
      </trkpt>
      <trkpt lat="46.962228" lon="10.398956">
        <time>1970-01-01T00:00:00+00:00</time>
        <ele>1807.0</ele>
      </trkpt>
      <trkpt lat="46.962426" lon="10.398699">
        <time>1970-01-01T00:00:00+00:00</time>
        <ele>1814.0</ele>
      </trkpt>
      <trkpt lat="46.962468" lon="10.398497">
        <time>1970-01-01T00:00:00+00:00</time>
        <ele>1814.0</ele>
      </trkpt>
      <trkpt lat="46.962534" lon="10.398415">
        <time>1970-01-01T00:00:00+00:00</time>
        <ele>1815.0</ele>
      </trkpt>
      <trkpt lat="46.962778" lon="10.39827">
        <time>1970-01-01T00:00:00+00:00</time>
        <ele>1822.0</ele>
      </trkpt>
      <trkpt lat="46.962907" lon="10.39827">
        <time>1970-01-01T00:00:00+00:00</time>
        <ele>1827.0</ele>
      </trkpt>
      <trkpt lat="46.963012" lon="10.398304">
        <time>1970-01-01T00:00:00+00:00</time>
        <ele>1832.0</ele>
      </trkpt>
      <trkpt lat="46.963123" lon="10.398284">
        <time>1970-01-01T00:00:00+00:00</time>
        <ele>1836.0</ele>
      </trkpt>
      <trkpt lat="46.963305" lon="10.3982">
        <time>1970-01-01T00:00:00+00:00</time>
        <ele>1841.0</ele>
      </trkpt>
      <trkpt lat="46.96327" lon="10.398373">
        <time>1970-01-01T00:00:00+00:00</time>
        <ele>1842.0</ele>
      </trkpt>
      <trkpt lat="46.963249" lon="10.398788">
        <time>1970-01-01T00:00:00+00:00</time>
        <ele>1847.0</ele>
      </trkpt>
      <trkpt lat="46.963175" lon="10.399091">
        <time>1970-01-01T00:00:00+00:00</time>
        <ele>1848.0</ele>
      </trkpt>
      <trkpt lat="46.96285" lon="10.40078">
        <time>1970-01-01T00:00:00+00:00</time>
        <ele>1865.0</ele>
      </trkpt>
      <trkpt lat="46.962593" lon="10.401421">
        <time>1970-01-01T00:00:00+00:00</time>
        <ele>1865.0</ele>
      </trkpt>
      <trkpt lat="46.962423" lon="10.401594">
        <time>1970-01-01T00:00:00+00:00</time>
        <ele>1866.0</ele>
      </trkpt>
      <trkpt lat="46.962428" lon="10.401677">
        <time>1970-01-01T00:00:00+00:00</time>
        <ele>1868.0</ele>
      </trkpt>
      <trkpt lat="46.962451" lon="10.401735">
        <time>1970-01-01T00:00:00+00:00</time>
        <ele>1869.0</ele>
      </trkpt>
      <trkpt lat="46.962499" lon="10.401756">
        <time>1970-01-01T00:00:00+00:00</time>
        <ele>1870.0</ele>
      </trkpt>
      <trkpt lat="46.962555" lon="10.401732">
        <time>1970-01-01T00:00:00+00:00</time>
        <ele>1871.0</ele>
      </trkpt>
      <trkpt lat="46.962603" lon="10.401839">
        <time>1970-01-01T00:00:00+00:00</time>
        <ele>1872.0</ele>
      </trkpt>
      <trkpt lat="46.962708" lon="10.402235">
        <time>1970-01-01T00:00:00+00:00</time>
        <ele>1873.0</ele>
      </trkpt>
      <trkpt lat="46.962771" lon="10.402009">
        <time>1970-01-01T00:00:00+00:00</time>
        <ele>1878.0</ele>
      </trkpt>
      <trkpt lat="46.962813" lon="10.402111">
        <time>1970-01-01T00:00:00+00:00</time>
        <ele>1880.0</ele>
      </trkpt>
      <trkpt lat="46.962822" lon="10.401724">
        <time>1970-01-01T00:00:00+00:00</time>
        <ele>1882.0</ele>
      </trkpt>
      <trkpt lat="46.962927" lon="10.401639">
        <time>1970-01-01T00:00:00+00:00</time>
        <ele>1889.0</ele>
      </trkpt>
      <trkpt lat="46.962945" lon="10.402035">
        <time>1970-01-01T00:00:00+00:00</time>
        <ele>1889.0</ele>
      </trkpt>
      <trkpt lat="46.962981" lon="10.401668">
        <time>1970-01-01T00:00:00+00:00</time>
        <ele>1894.0</ele>
      </trkpt>
      <trkpt lat="46.963071" lon="10.401521">
        <time>1970-01-01T00:00:00+00:00</time>
        <ele>1898.0</ele>
      </trkpt>
      <trkpt lat="46.963122" lon="10.401662">
        <time>1970-01-01T00:00:00+00:00</time>
        <ele>1906.0</ele>
      </trkpt>
      <trkpt lat="46.963126" lon="10.401763">
        <time>1970-01-01T00:00:00+00:00</time>
        <ele>1907.0</ele>
      </trkpt>
      <trkpt lat="46.963245" lon="10.401757">
        <time>1970-01-01T00:00:00+00:00</time>
        <ele>1916.0</ele>
      </trkpt>
      <trkpt lat="46.9632" lon="10.401976">
        <time>1970-01-01T00:00:00+00:00</time>
        <ele>1912.0</ele>
      </trkpt>
      <trkpt lat="46.963203" lon="10.402104">
        <time>1970-01-01T00:00:00+00:00</time>
        <ele>1910.0</ele>
      </trkpt>
      <trkpt lat="46.963319" lon="10.402199">
        <time>1970-01-01T00:00:00+00:00</time>
        <ele>1919.0</ele>
      </trkpt>
      <trkpt lat="46.96339" lon="10.402016">
        <time>1970-01-01T00:00:00+00:00</time>
        <ele>1927.0</ele>
      </trkpt>
      <trkpt lat="46.963726" lon="10.402189">
        <time>1970-01-01T00:00:00+00:00</time>
        <ele>1939.0</ele>
      </trkpt>
      <trkpt lat="46.963757" lon="10.402078">
        <time>1970-01-01T00:00:00+00:00</time>
        <ele>1941.0</ele>
      </trkpt>
      <trkpt lat="46.963891" lon="10.402012">
        <time>1970-01-01T00:00:00+00:00</time>
        <ele>1947.0</ele>
      </trkpt>
      <trkpt lat="46.963972" lon="10.402048">
        <time>1970-01-01T00:00:00+00:00</time>
        <ele>1950.0</ele>
      </trkpt>
      <trkpt lat="46.964008" lon="10.401855">
        <time>1970-01-01T00:00:00+00:00</time>
        <ele>1952.0</ele>
      </trkpt>
      <trkpt lat="46.96412" lon="10.401881">
        <time>1970-01-01T00:00:00+00:00</time>
        <ele>1957.0</ele>
      </trkpt>
      <trkpt lat="46.964146" lon="10.402183">
        <time>1970-01-01T00:00:00+00:00</time>
        <ele>1956.0</ele>
      </trkpt>
      <trkpt lat="46.964162" lon="10.401917">
        <time>1970-01-01T00:00:00+00:00</time>
        <ele>1960.0</ele>
      </trkpt>
      <trkpt lat="46.96431" lon="10.401714">
        <time>1970-01-01T00:00:00+00:00</time>
        <ele>1972.0</ele>
      </trkpt>
      <trkpt lat="46.964345" lon="10.401773">
        <time>1970-01-01T00:00:00+00:00</time>
        <ele>1975.0</ele>
      </trkpt>
      <trkpt lat="46.96429" lon="10.401989">
        <time>1970-01-01T00:00:00+00:00</time>
        <ele>1969.0</ele>
      </trkpt>
      <trkpt lat="46.964397" lon="10.401819">
        <time>1970-01-01T00:00:00+00:00</time>
        <ele>1979.0</ele>
      </trkpt>
      <trkpt lat="46.964527" lon="10.40154">
        <time>1970-01-01T00:00:00+00:00</time>
        <ele>1983.0</ele>
      </trkpt>
      <trkpt lat="46.964641" lon="10.40159">
        <time>1970-01-01T00:00:00+00:00</time>
        <ele>1992.0</ele>
      </trkpt>
      <trkpt lat="46.964598" lon="10.401678">
        <time>1970-01-01T00:00:00+00:00</time>
        <ele>1993.0</ele>
      </trkpt>
      <trkpt lat="46.964679" lon="10.401708">
        <time>1970-01-01T00:00:00+00:00</time>
        <ele>1999.0</ele>
      </trkpt>
      <trkpt lat="46.964775" lon="10.401934">
        <time>1970-01-01T00:00:00+00:00</time>
        <ele>2007.0</ele>
      </trkpt>
      <trkpt lat="46.964737" lon="10.40214">
        <time>1970-01-01T00:00:00+00:00</time>
        <ele>2002.0</ele>
      </trkpt>
      <trkpt lat="46.964826" lon="10.402193">
        <time>1970-01-01T00:00:00+00:00</time>
        <ele>2009.0</ele>
      </trkpt>
      <trkpt lat="46.964853" lon="10.402078">
        <time>1970-01-01T00:00:00+00:00</time>
        <ele>2012.0</ele>
      </trkpt>
      <trkpt lat="46.964896" lon="10.402071">
        <time>1970-01-01T00:00:00+00:00</time>
        <ele>2016.0</ele>
      </trkpt>
      <trkpt lat="46.964909" lon="10.401986">
        <time>1970-01-01T00:00:00+00:00</time>
        <ele>2017.0</ele>
      </trkpt>
      <trkpt lat="46.965039" lon="10.401881">
        <time>1970-01-01T00:00:00+00:00</time>
        <ele>2027.0</ele>
      </trkpt>
      <trkpt lat="46.965209" lon="10.401891">
        <time>1970-01-01T00:00:00+00:00</time>
        <ele>2035.0</ele>
      </trkpt>
      <trkpt lat="46.965236" lon="10.401819">
        <time>1970-01-01T00:00:00+00:00</time>
        <ele>2036.0</ele>
      </trkpt>
      <trkpt lat="46.965327" lon="10.40175">
        <time>1970-01-01T00:00:00+00:00</time>
        <ele>2042.0</ele>
      </trkpt>
      <trkpt lat="46.965453" lon="10.401907">
        <time>1970-01-01T00:00:00+00:00</time>
        <ele>2050.0</ele>
      </trkpt>
      <trkpt lat="46.965448" lon="10.402019">
        <time>1970-01-01T00:00:00+00:00</time>
        <ele>2049.0</ele>
      </trkpt>
      <trkpt lat="46.965573" lon="10.401898">
        <time>1970-01-01T00:00:00+00:00</time>
        <ele>2059.0</ele>
      </trkpt>
      <trkpt lat="46.965707" lon="10.401439">
        <time>1970-01-01T00:00:00+00:00</time>
        <ele>2058.0</ele>
      </trkpt>
      <trkpt lat="46.965988" lon="10.401337">
        <time>1970-01-01T00:00:00+00:00</time>
        <ele>2070.0</ele>
      </trkpt>
      <trkpt lat="46.965847" lon="10.401711">
        <time>1970-01-01T00:00:00+00:00</time>
        <ele>2075.0</ele>
      </trkpt>
      <trkpt lat="46.966045" lon="10.40157">
        <time>1970-01-01T00:00:00+00:00</time>
        <ele>2082.0</ele>
      </trkpt>
      <trkpt lat="46.96653" lon="10.401458">
        <time>1970-01-01T00:00:00+00:00</time>
        <ele>2085.0</ele>
      </trkpt>
      <trkpt lat="46.966913" lon="10.401093">
        <time>1970-01-01T00:00:00+00:00</time>
        <ele>2094.0</ele>
      </trkpt>
      <trkpt lat="46.967283" lon="10.401159">
        <time>1970-01-01T00:00:00+00:00</time>
        <ele>2103.0</ele>
      </trkpt>
      <trkpt lat="46.967596" lon="10.401318">
        <time>1970-01-01T00:00:00+00:00</time>
        <ele>2100.0</ele>
      </trkpt>
      <trkpt lat="46.967947" lon="10.400935">
        <time>1970-01-01T00:00:00+00:00</time>
        <ele>2122.0</ele>
      </trkpt>
      <trkpt lat="46.968036" lon="10.401019">
        <time>1970-01-01T00:00:00+00:00</time>
        <ele>2124.0</ele>
      </trkpt>
      <trkpt lat="46.968177" lon="10.401028">
        <time>1970-01-01T00:00:00+00:00</time>
        <ele>2130.0</ele>
      </trkpt>
      <trkpt lat="46.968132" lon="10.401262">
        <time>1970-01-01T00:00:00+00:00</time>
        <ele>2121.0</ele>
      </trkpt>
      <trkpt lat="46.968579" lon="10.401346">
        <time>1970-01-01T00:00:00+00:00</time>
        <ele>2133.0</ele>
      </trkpt>
      <trkpt lat="46.96907" lon="10.401075">
        <time>1970-01-01T00:00:00+00:00</time>
        <ele>2156.0</ele>
      </trkpt>
      <trkpt lat="46.969274" lon="10.400635">
        <time>1970-01-01T00:00:00+00:00</time>
        <ele>2156.0</ele>
      </trkpt>
      <trkpt lat="46.969587" lon="10.400542">
        <time>1970-01-01T00:00:00+00:00</time>
        <ele>2165.0</ele>
      </trkpt>
      <trkpt lat="46.970091" lon="10.400523">
        <time>1970-01-01T00:00:00+00:00</time>
        <ele>2182.0</ele>
      </trkpt>
      <trkpt lat="46.970569" lon="10.400617">
        <time>1970-01-01T00:00:00+00:00</time>
        <ele>2197.0</ele>
      </trkpt>
      <trkpt lat="46.970927" lon="10.400925">
        <time>1970-01-01T00:00:00+00:00</time>
        <ele>2211.0</ele>
      </trkpt>
      <trkpt lat="46.971271" lon="10.401065">
        <time>1970-01-01T00:00:00+00:00</time>
        <ele>2214.0</ele>
      </trkpt>
      <trkpt lat="46.97175" lon="10.401318">
        <time>1970-01-01T00:00:00+00:00</time>
        <ele>2225.0</ele>
      </trkpt>
      <trkpt lat="46.971558" lon="10.401626">
        <time>1970-01-01T00:00:00+00:00</time>
        <ele>2240.0</ele>
      </trkpt>
      <trkpt lat="46.972063" lon="10.401757">
        <time>1970-01-01T00:00:00+00:00</time>
        <ele>2243.0</ele>
      </trkpt>
      <trkpt lat="46.972292" lon="10.401944">
        <time>1970-01-01T00:00:00+00:00</time>
        <ele>2251.0</ele>
      </trkpt>
      <trkpt lat="46.972579" lon="10.401842">
        <time>1970-01-01T00:00:00+00:00</time>
        <ele>2255.0</ele>
      </trkpt>
      <trkpt lat="46.972962" lon="10.402019">
        <time>1970-01-01T00:00:00+00:00</time>
        <ele>2261.0</ele>
      </trkpt>
      <trkpt lat="46.973594" lon="10.402019">
        <time>1970-01-01T00:00:00+00:00</time>
        <ele>2269.0</ele>
      </trkpt>
      <trkpt lat="46.973989" lon="10.402309">
        <time>1970-01-01T00:00:00+00:00</time>
        <ele>2277.0</ele>
      </trkpt>
      <trkpt lat="46.973989" lon="10.402487">
        <time>1970-01-01T00:00:00+00:00</time>
        <ele>2279.0</ele>
      </trkpt>
      <trkpt lat="46.97427" lon="10.402767">
        <time>1970-01-01T00:00:00+00:00</time>
        <ele>2279.0</ele>
      </trkpt>
      <trkpt lat="46.974187" lon="10.40287">
        <time>1970-01-01T00:00:00+00:00</time>
        <ele>2278.0</ele>
      </trkpt>
      <trkpt lat="46.974245" lon="10.403076">
        <time>1970-01-01T00:00:00+00:00</time>
        <ele>2276.0</ele>
      </trkpt>
      <trkpt lat="46.974461" lon="10.403272">
        <time>1970-01-01T00:00:00+00:00</time>
        <ele>2280.0</ele>
      </trkpt>
      <trkpt lat="46.9748" lon="10.404245">
        <time>1970-01-01T00:00:00+00:00</time>
        <ele>2269.0</ele>
      </trkpt>
      <trkpt lat="46.974997" lon="10.40445">
        <time>1970-01-01T00:00:00+00:00</time>
        <ele>2270.0</ele>
      </trkpt>
      <trkpt lat="46.975508" lon="10.404899">
        <time>1970-01-01T00:00:00+00:00</time>
        <ele>2276.0</ele>
      </trkpt>
      <trkpt lat="46.975661" lon="10.405741">
        <time>1970-01-01T00:00:00+00:00</time>
        <ele>2273.0</ele>
      </trkpt>
      <trkpt lat="46.976178" lon="10.406358">
        <time>1970-01-01T00:00:00+00:00</time>
        <ele>2279.0</ele>
      </trkpt>
      <trkpt lat="46.976159" lon="10.407003">
        <time>1970-01-01T00:00:00+00:00</time>
        <ele>2280.0</ele>
      </trkpt>
      <trkpt lat="46.97598" lon="10.407779">
        <time>1970-01-01T00:00:00+00:00</time>
        <ele>2286.0</ele>
      </trkpt>
      <trkpt lat="46.97561" lon="10.408219">
        <time>1970-01-01T00:00:00+00:00</time>
        <ele>2284.0</ele>
      </trkpt>
      <trkpt lat="46.975131" lon="10.408434">
        <time>1970-01-01T00:00:00+00:00</time>
        <ele>2276.0</ele>
      </trkpt>
      <trkpt lat="46.974781" lon="10.409135">
        <time>1970-01-01T00:00:00+00:00</time>
        <ele>2276.0</ele>
      </trkpt>
      <trkpt lat="46.974653" lon="10.409696">
        <time>1970-01-01T00:00:00+00:00</time>
        <ele>2286.0</ele>
      </trkpt>
      <trkpt lat="46.974072" lon="10.410641">
        <time>1970-01-01T00:00:00+00:00</time>
        <ele>2282.0</ele>
      </trkpt>
      <trkpt lat="46.974053" lon="10.410987">
        <time>1970-01-01T00:00:00+00:00</time>
        <ele>2286.0</ele>
      </trkpt>
      <trkpt lat="46.973881" lon="10.411398">
        <time>1970-01-01T00:00:00+00:00</time>
        <ele>2275.0</ele>
      </trkpt>
      <trkpt lat="46.97353" lon="10.411669">
        <time>1970-01-01T00:00:00+00:00</time>
        <ele>2267.0</ele>
      </trkpt>
      <trkpt lat="46.973103" lon="10.41252">
        <time>1970-01-01T00:00:00+00:00</time>
        <ele>2260.0</ele>
      </trkpt>
      <trkpt lat="46.972669" lon="10.413006">
        <time>1970-01-01T00:00:00+00:00</time>
        <ele>2250.0</ele>
      </trkpt>
      <trkpt lat="46.972669" lon="10.413006">
        <time>1970-01-01T00:00:00+00:00</time>
        <ele>2250.0</ele>
      </trkpt>
      <trkpt lat="46.973103" lon="10.41252">
        <time>1970-01-01T00:00:00+00:00</time>
        <ele>2260.0</ele>
      </trkpt>
      <trkpt lat="46.97353" lon="10.411669">
        <time>1970-01-01T00:00:00+00:00</time>
        <ele>2267.0</ele>
      </trkpt>
      <trkpt lat="46.973881" lon="10.411398">
        <time>1970-01-01T00:00:00+00:00</time>
        <ele>2275.0</ele>
      </trkpt>
      <trkpt lat="46.974053" lon="10.410987">
        <time>1970-01-01T00:00:00+00:00</time>
        <ele>2286.0</ele>
      </trkpt>
      <trkpt lat="46.974072" lon="10.410641">
        <time>1970-01-01T00:00:00+00:00</time>
        <ele>2282.0</ele>
      </trkpt>
      <trkpt lat="46.974653" lon="10.409696">
        <time>1970-01-01T00:00:00+00:00</time>
        <ele>2286.0</ele>
      </trkpt>
      <trkpt lat="46.974781" lon="10.409135">
        <time>1970-01-01T00:00:00+00:00</time>
        <ele>2276.0</ele>
      </trkpt>
      <trkpt lat="46.975131" lon="10.408434">
        <time>1970-01-01T00:00:00+00:00</time>
        <ele>2276.0</ele>
      </trkpt>
      <trkpt lat="46.97561" lon="10.408219">
        <time>1970-01-01T00:00:00+00:00</time>
        <ele>2284.0</ele>
      </trkpt>
      <trkpt lat="46.97598" lon="10.407779">
        <time>1970-01-01T00:00:00+00:00</time>
        <ele>2286.0</ele>
      </trkpt>
      <trkpt lat="46.976159" lon="10.407003">
        <time>1970-01-01T00:00:00+00:00</time>
        <ele>2280.0</ele>
      </trkpt>
      <trkpt lat="46.976178" lon="10.406358">
        <time>1970-01-01T00:00:00+00:00</time>
        <ele>2279.0</ele>
      </trkpt>
      <trkpt lat="46.975661" lon="10.405741">
        <time>1970-01-01T00:00:00+00:00</time>
        <ele>2273.0</ele>
      </trkpt>
      <trkpt lat="46.975508" lon="10.404899">
        <time>1970-01-01T00:00:00+00:00</time>
        <ele>2276.0</ele>
      </trkpt>
      <trkpt lat="46.974997" lon="10.40445">
        <time>1970-01-01T00:00:00+00:00</time>
        <ele>2270.0</ele>
      </trkpt>
      <trkpt lat="46.9748" lon="10.404245">
        <time>1970-01-01T00:00:00+00:00</time>
        <ele>2269.0</ele>
      </trkpt>
      <trkpt lat="46.974461" lon="10.403272">
        <time>1970-01-01T00:00:00+00:00</time>
        <ele>2280.0</ele>
      </trkpt>
      <trkpt lat="46.974245" lon="10.403076">
        <time>1970-01-01T00:00:00+00:00</time>
        <ele>2276.0</ele>
      </trkpt>
      <trkpt lat="46.974187" lon="10.40287">
        <time>1970-01-01T00:00:00+00:00</time>
        <ele>2278.0</ele>
      </trkpt>
      <trkpt lat="46.97427" lon="10.402767">
        <time>1970-01-01T00:00:00+00:00</time>
        <ele>2279.0</ele>
      </trkpt>
      <trkpt lat="46.973989" lon="10.402487">
        <time>1970-01-01T00:00:00+00:00</time>
        <ele>2279.0</ele>
      </trkpt>
      <trkpt lat="46.973989" lon="10.402309">
        <time>1970-01-01T00:00:00+00:00</time>
        <ele>2277.0</ele>
      </trkpt>
      <trkpt lat="46.973594" lon="10.402019">
        <time>1970-01-01T00:00:00+00:00</time>
        <ele>2269.0</ele>
      </trkpt>
      <trkpt lat="46.972962" lon="10.402019">
        <time>1970-01-01T00:00:00+00:00</time>
        <ele>2261.0</ele>
      </trkpt>
      <trkpt lat="46.972579" lon="10.401842">
        <time>1970-01-01T00:00:00+00:00</time>
        <ele>2255.0</ele>
      </trkpt>
      <trkpt lat="46.972292" lon="10.401944">
        <time>1970-01-01T00:00:00+00:00</time>
        <ele>2251.0</ele>
      </trkpt>
      <trkpt lat="46.972063" lon="10.401757">
        <time>1970-01-01T00:00:00+00:00</time>
        <ele>2243.0</ele>
      </trkpt>
      <trkpt lat="46.971558" lon="10.401626">
        <time>1970-01-01T00:00:00+00:00</time>
        <ele>2240.0</ele>
      </trkpt>
      <trkpt lat="46.97175" lon="10.401318">
        <time>1970-01-01T00:00:00+00:00</time>
        <ele>2225.0</ele>
      </trkpt>
      <trkpt lat="46.971271" lon="10.401065">
        <time>1970-01-01T00:00:00+00:00</time>
        <ele>2214.0</ele>
      </trkpt>
      <trkpt lat="46.970927" lon="10.400925">
        <time>1970-01-01T00:00:00+00:00</time>
        <ele>2211.0</ele>
      </trkpt>
      <trkpt lat="46.970569" lon="10.400617">
        <time>1970-01-01T00:00:00+00:00</time>
        <ele>2197.0</ele>
      </trkpt>
      <trkpt lat="46.970091" lon="10.400523">
        <time>1970-01-01T00:00:00+00:00</time>
        <ele>2182.0</ele>
      </trkpt>
      <trkpt lat="46.969587" lon="10.400542">
        <time>1970-01-01T00:00:00+00:00</time>
        <ele>2165.0</ele>
      </trkpt>
      <trkpt lat="46.969274" lon="10.400635">
        <time>1970-01-01T00:00:00+00:00</time>
        <ele>2156.0</ele>
      </trkpt>
      <trkpt lat="46.96907" lon="10.401075">
        <time>1970-01-01T00:00:00+00:00</time>
        <ele>2156.0</ele>
      </trkpt>
      <trkpt lat="46.968579" lon="10.401346">
        <time>1970-01-01T00:00:00+00:00</time>
        <ele>2133.0</ele>
      </trkpt>
      <trkpt lat="46.968132" lon="10.401262">
        <time>1970-01-01T00:00:00+00:00</time>
        <ele>2121.0</ele>
      </trkpt>
      <trkpt lat="46.968177" lon="10.401028">
        <time>1970-01-01T00:00:00+00:00</time>
        <ele>2130.0</ele>
      </trkpt>
      <trkpt lat="46.968036" lon="10.401019">
        <time>1970-01-01T00:00:00+00:00</time>
        <ele>2124.0</ele>
      </trkpt>
      <trkpt lat="46.967947" lon="10.400935">
        <time>1970-01-01T00:00:00+00:00</time>
        <ele>2122.0</ele>
      </trkpt>
      <trkpt lat="46.967596" lon="10.401318">
        <time>1970-01-01T00:00:00+00:00</time>
        <ele>2100.0</ele>
      </trkpt>
      <trkpt lat="46.967283" lon="10.401159">
        <time>1970-01-01T00:00:00+00:00</time>
        <ele>2103.0</ele>
      </trkpt>
      <trkpt lat="46.966913" lon="10.401093">
        <time>1970-01-01T00:00:00+00:00</time>
        <ele>2094.0</ele>
      </trkpt>
      <trkpt lat="46.96653" lon="10.401458">
        <time>1970-01-01T00:00:00+00:00</time>
        <ele>2085.0</ele>
      </trkpt>
      <trkpt lat="46.966045" lon="10.40157">
        <time>1970-01-01T00:00:00+00:00</time>
        <ele>2082.0</ele>
      </trkpt>
      <trkpt lat="46.965847" lon="10.401711">
        <time>1970-01-01T00:00:00+00:00</time>
        <ele>2075.0</ele>
      </trkpt>
      <trkpt lat="46.965988" lon="10.401337">
        <time>1970-01-01T00:00:00+00:00</time>
        <ele>2070.0</ele>
      </trkpt>
      <trkpt lat="46.965707" lon="10.401439">
        <time>1970-01-01T00:00:00+00:00</time>
        <ele>2058.0</ele>
      </trkpt>
      <trkpt lat="46.965573" lon="10.401898">
        <time>1970-01-01T00:00:00+00:00</time>
        <ele>2059.0</ele>
      </trkpt>
      <trkpt lat="46.965448" lon="10.402019">
        <time>1970-01-01T00:00:00+00:00</time>
        <ele>2049.0</ele>
      </trkpt>
      <trkpt lat="46.965453" lon="10.401907">
        <time>1970-01-01T00:00:00+00:00</time>
        <ele>2050.0</ele>
      </trkpt>
      <trkpt lat="46.965327" lon="10.40175">
        <time>1970-01-01T00:00:00+00:00</time>
        <ele>2042.0</ele>
      </trkpt>
      <trkpt lat="46.965236" lon="10.401819">
        <time>1970-01-01T00:00:00+00:00</time>
        <ele>2036.0</ele>
      </trkpt>
      <trkpt lat="46.965209" lon="10.401891">
        <time>1970-01-01T00:00:00+00:00</time>
        <ele>2035.0</ele>
      </trkpt>
      <trkpt lat="46.965039" lon="10.401881">
        <time>1970-01-01T00:00:00+00:00</time>
        <ele>2027.0</ele>
      </trkpt>
      <trkpt lat="46.964909" lon="10.401986">
        <time>1970-01-01T00:00:00+00:00</time>
        <ele>2017.0</ele>
      </trkpt>
      <trkpt lat="46.964896" lon="10.402071">
        <time>1970-01-01T00:00:00+00:00</time>
        <ele>2016.0</ele>
      </trkpt>
      <trkpt lat="46.964853" lon="10.402078">
        <time>1970-01-01T00:00:00+00:00</time>
        <ele>2012.0</ele>
      </trkpt>
      <trkpt lat="46.964826" lon="10.402193">
        <time>1970-01-01T00:00:00+00:00</time>
        <ele>2009.0</ele>
      </trkpt>
      <trkpt lat="46.964737" lon="10.40214">
        <time>1970-01-01T00:00:00+00:00</time>
        <ele>2002.0</ele>
      </trkpt>
      <trkpt lat="46.964775" lon="10.401934">
        <time>1970-01-01T00:00:00+00:00</time>
        <ele>2007.0</ele>
      </trkpt>
      <trkpt lat="46.964679" lon="10.401708">
        <time>1970-01-01T00:00:00+00:00</time>
        <ele>1999.0</ele>
      </trkpt>
      <trkpt lat="46.964598" lon="10.401678">
        <time>1970-01-01T00:00:00+00:00</time>
        <ele>1993.0</ele>
      </trkpt>
      <trkpt lat="46.964641" lon="10.40159">
        <time>1970-01-01T00:00:00+00:00</time>
        <ele>1992.0</ele>
      </trkpt>
      <trkpt lat="46.964527" lon="10.40154">
        <time>1970-01-01T00:00:00+00:00</time>
        <ele>1983.0</ele>
      </trkpt>
      <trkpt lat="46.964397" lon="10.401819">
        <time>1970-01-01T00:00:00+00:00</time>
        <ele>1979.0</ele>
      </trkpt>
      <trkpt lat="46.96429" lon="10.401989">
        <time>1970-01-01T00:00:00+00:00</time>
        <ele>1969.0</ele>
      </trkpt>
      <trkpt lat="46.964345" lon="10.401773">
        <time>1970-01-01T00:00:00+00:00</time>
        <ele>1975.0</ele>
      </trkpt>
      <trkpt lat="46.96431" lon="10.401714">
        <time>1970-01-01T00:00:00+00:00</time>
        <ele>1972.0</ele>
      </trkpt>
      <trkpt lat="46.964162" lon="10.401917">
        <time>1970-01-01T00:00:00+00:00</time>
        <ele>1960.0</ele>
      </trkpt>
      <trkpt lat="46.964146" lon="10.402183">
        <time>1970-01-01T00:00:00+00:00</time>
        <ele>1956.0</ele>
      </trkpt>
      <trkpt lat="46.96412" lon="10.401881">
        <time>1970-01-01T00:00:00+00:00</time>
        <ele>1957.0</ele>
      </trkpt>
      <trkpt lat="46.964008" lon="10.401855">
        <time>1970-01-01T00:00:00+00:00</time>
        <ele>1952.0</ele>
      </trkpt>
      <trkpt lat="46.963972" lon="10.402048">
        <time>1970-01-01T00:00:00+00:00</time>
        <ele>1950.0</ele>
      </trkpt>
      <trkpt lat="46.963891" lon="10.402012">
        <time>1970-01-01T00:00:00+00:00</time>
        <ele>1947.0</ele>
      </trkpt>
      <trkpt lat="46.963757" lon="10.402078">
        <time>1970-01-01T00:00:00+00:00</time>
        <ele>1941.0</ele>
      </trkpt>
      <trkpt lat="46.963726" lon="10.402189">
        <time>1970-01-01T00:00:00+00:00</time>
        <ele>1939.0</ele>
      </trkpt>
      <trkpt lat="46.96339" lon="10.402016">
        <time>1970-01-01T00:00:00+00:00</time>
        <ele>1927.0</ele>
      </trkpt>
      <trkpt lat="46.963319" lon="10.402199">
        <time>1970-01-01T00:00:00+00:00</time>
        <ele>1919.0</ele>
      </trkpt>
      <trkpt lat="46.963203" lon="10.402104">
        <time>1970-01-01T00:00:00+00:00</time>
        <ele>1910.0</ele>
      </trkpt>
      <trkpt lat="46.9632" lon="10.401976">
        <time>1970-01-01T00:00:00+00:00</time>
        <ele>1912.0</ele>
      </trkpt>
      <trkpt lat="46.963245" lon="10.401757">
        <time>1970-01-01T00:00:00+00:00</time>
        <ele>1916.0</ele>
      </trkpt>
      <trkpt lat="46.963126" lon="10.401763">
        <time>1970-01-01T00:00:00+00:00</time>
        <ele>1907.0</ele>
      </trkpt>
      <trkpt lat="46.963122" lon="10.401662">
        <time>1970-01-01T00:00:00+00:00</time>
        <ele>1906.0</ele>
      </trkpt>
      <trkpt lat="46.963071" lon="10.401521">
        <time>1970-01-01T00:00:00+00:00</time>
        <ele>1898.0</ele>
      </trkpt>
      <trkpt lat="46.962981" lon="10.401668">
        <time>1970-01-01T00:00:00+00:00</time>
        <ele>1894.0</ele>
      </trkpt>
      <trkpt lat="46.962945" lon="10.402035">
        <time>1970-01-01T00:00:00+00:00</time>
        <ele>1889.0</ele>
      </trkpt>
      <trkpt lat="46.962927" lon="10.401639">
        <time>1970-01-01T00:00:00+00:00</time>
        <ele>1889.0</ele>
      </trkpt>
      <trkpt lat="46.962822" lon="10.401724">
        <time>1970-01-01T00:00:00+00:00</time>
        <ele>1882.0</ele>
      </trkpt>
      <trkpt lat="46.962813" lon="10.402111">
        <time>1970-01-01T00:00:00+00:00</time>
        <ele>1880.0</ele>
      </trkpt>
      <trkpt lat="46.962771" lon="10.402009">
        <time>1970-01-01T00:00:00+00:00</time>
        <ele>1878.0</ele>
      </trkpt>
      <trkpt lat="46.962708" lon="10.402235">
        <time>1970-01-01T00:00:00+00:00</time>
        <ele>1873.0</ele>
      </trkpt>
      <trkpt lat="46.962603" lon="10.401839">
        <time>1970-01-01T00:00:00+00:00</time>
        <ele>1872.0</ele>
      </trkpt>
      <trkpt lat="46.962555" lon="10.401732">
        <time>1970-01-01T00:00:00+00:00</time>
        <ele>1871.0</ele>
      </trkpt>
      <trkpt lat="46.962499" lon="10.401756">
        <time>1970-01-01T00:00:00+00:00</time>
        <ele>1870.0</ele>
      </trkpt>
      <trkpt lat="46.962451" lon="10.401735">
        <time>1970-01-01T00:00:00+00:00</time>
        <ele>1869.0</ele>
      </trkpt>
      <trkpt lat="46.962428" lon="10.401677">
        <time>1970-01-01T00:00:00+00:00</time>
        <ele>1868.0</ele>
      </trkpt>
      <trkpt lat="46.962423" lon="10.401594">
        <time>1970-01-01T00:00:00+00:00</time>
        <ele>1866.0</ele>
      </trkpt>
      <trkpt lat="46.962593" lon="10.401421">
        <time>1970-01-01T00:00:00+00:00</time>
        <ele>1865.0</ele>
      </trkpt>
      <trkpt lat="46.96285" lon="10.40078">
        <time>1970-01-01T00:00:00+00:00</time>
        <ele>1865.0</ele>
      </trkpt>
      <trkpt lat="46.963175" lon="10.399091">
        <time>1970-01-01T00:00:00+00:00</time>
        <ele>1848.0</ele>
      </trkpt>
      <trkpt lat="46.963249" lon="10.398788">
        <time>1970-01-01T00:00:00+00:00</time>
        <ele>1847.0</ele>
      </trkpt>
      <trkpt lat="46.96327" lon="10.398373">
        <time>1970-01-01T00:00:00+00:00</time>
        <ele>1842.0</ele>
      </trkpt>
      <trkpt lat="46.963305" lon="10.3982">
        <time>1970-01-01T00:00:00+00:00</time>
        <ele>1841.0</ele>
      </trkpt>
      <trkpt lat="46.963123" lon="10.398284">
        <time>1970-01-01T00:00:00+00:00</time>
        <ele>1836.0</ele>
      </trkpt>
      <trkpt lat="46.963012" lon="10.398304">
        <time>1970-01-01T00:00:00+00:00</time>
        <ele>1832.0</ele>
      </trkpt>
      <trkpt lat="46.962907" lon="10.39827">
        <time>1970-01-01T00:00:00+00:00</time>
        <ele>1827.0</ele>
      </trkpt>
      <trkpt lat="46.962778" lon="10.39827">
        <time>1970-01-01T00:00:00+00:00</time>
        <ele>1822.0</ele>
      </trkpt>
      <trkpt lat="46.962534" lon="10.398415">
        <time>1970-01-01T00:00:00+00:00</time>
        <ele>1815.0</ele>
      </trkpt>
      <trkpt lat="46.962468" lon="10.398497">
        <time>1970-01-01T00:00:00+00:00</time>
        <ele>1814.0</ele>
      </trkpt>
      <trkpt lat="46.962426" lon="10.398699">
        <time>1970-01-01T00:00:00+00:00</time>
        <ele>1814.0</ele>
      </trkpt>
      <trkpt lat="46.962228" lon="10.398956">
        <time>1970-01-01T00:00:00+00:00</time>
        <ele>1807.0</ele>
      </trkpt>
      <trkpt lat="46.962111" lon="10.399042">
        <time>1970-01-01T00:00:00+00:00</time>
        <ele>1802.0</ele>
      </trkpt>
      <trkpt lat="46.962001" lon="10.39916">
        <time>1970-01-01T00:00:00+00:00</time>
        <ele>1797.0</ele>
      </trkpt>
      <trkpt lat="46.961811" lon="10.399707">
        <time>1970-01-01T00:00:00+00:00</time>
        <ele>1790.0</ele>
      </trkpt>
      <trkpt lat="46.961683" lon="10.400015">
        <time>1970-01-01T00:00:00+00:00</time>
        <ele>1784.0</ele>
      </trkpt>
      <trkpt lat="46.9616" lon="10.400521">
        <time>1970-01-01T00:00:00+00:00</time>
        <ele>1784.0</ele>
      </trkpt>
      <trkpt lat="46.961372" lon="10.401084">
        <time>1970-01-01T00:00:00+00:00</time>
        <ele>1779.0</ele>
      </trkpt>
      <trkpt lat="46.961195" lon="10.401745">
        <time>1970-01-01T00:00:00+00:00</time>
        <ele>1774.0</ele>
      </trkpt>
      <trkpt lat="46.961051" lon="10.402376">
        <time>1970-01-01T00:00:00+00:00</time>
        <ele>1760.0</ele>
      </trkpt>
      <trkpt lat="46.961025" lon="10.402641">
        <time>1970-01-01T00:00:00+00:00</time>
        <ele>1754.0</ele>
      </trkpt>
      <trkpt lat="46.961209" lon="10.402954">
        <time>1970-01-01T00:00:00+00:00</time>
        <ele>1759.0</ele>
      </trkpt>
      <trkpt lat="46.961533" lon="10.403434">
        <time>1970-01-01T00:00:00+00:00</time>
        <ele>1758.0</ele>
      </trkpt>
      <trkpt lat="46.96182" lon="10.40409">
        <time>1970-01-01T00:00:00+00:00</time>
        <ele>1754.0</ele>
      </trkpt>
      <trkpt lat="46.961941" lon="10.404682">
        <time>1970-01-01T00:00:00+00:00</time>
        <ele>1748.0</ele>
      </trkpt>
      <trkpt lat="46.96193" lon="10.404756">
        <time>1970-01-01T00:00:00+00:00</time>
        <ele>1748.0</ele>
      </trkpt>
      <trkpt lat="46.961887" lon="10.404782">
        <time>1970-01-01T00:00:00+00:00</time>
        <ele>1744.0</ele>
      </trkpt>
      <trkpt lat="46.961833" lon="10.404708">
        <time>1970-01-01T00:00:00+00:00</time>
        <ele>1740.0</ele>
      </trkpt>
      <trkpt lat="46.961703" lon="10.404315">
        <time>1970-01-01T00:00:00+00:00</time>
        <ele>1737.0</ele>
      </trkpt>
      <trkpt lat="46.961397" lon="10.403863">
        <time>1970-01-01T00:00:00+00:00</time>
        <ele>1735.0</ele>
      </trkpt>
      <trkpt lat="46.961313" lon="10.403768">
        <time>1970-01-01T00:00:00+00:00</time>
        <ele>1734.0</ele>
      </trkpt>
      <trkpt lat="46.961136" lon="10.403678">
        <time>1970-01-01T00:00:00+00:00</time>
        <ele>1728.0</ele>
      </trkpt>
      <trkpt lat="46.960933" lon="10.403682">
        <time>1970-01-01T00:00:00+00:00</time>
        <ele>1723.0</ele>
      </trkpt>
      <trkpt lat="46.960856" lon="10.403683">
        <time>1970-01-01T00:00:00+00:00</time>
        <ele>1721.0</ele>
      </trkpt>
      <trkpt lat="46.960729" lon="10.403755">
        <time>1970-01-01T00:00:00+00:00</time>
        <ele>1717.0</ele>
      </trkpt>
      <trkpt lat="46.960685" lon="10.40376">
        <time>1970-01-01T00:00:00+00:00</time>
        <ele>1716.0</ele>
      </trkpt>
      <trkpt lat="46.960655" lon="10.403735">
        <time>1970-01-01T00:00:00+00:00</time>
        <ele>1716.0</ele>
      </trkpt>
      <trkpt lat="46.960336" lon="10.403041">
        <time>1970-01-01T00:00:00+00:00</time>
        <ele>1719.0</ele>
      </trkpt>
      <trkpt lat="46.960291" lon="10.402986">
        <time>1970-01-01T00:00:00+00:00</time>
        <ele>1718.0</ele>
      </trkpt>
      <trkpt lat="46.960189" lon="10.402985">
        <time>1970-01-01T00:00:00+00:00</time>
        <ele>1717.0</ele>
      </trkpt>
      <trkpt lat="46.960145" lon="10.402454">
        <time>1970-01-01T00:00:00+00:00</time>
        <ele>1716.0</ele>
      </trkpt>
      <trkpt lat="46.960142" lon="10.401997">
        <time>1970-01-01T00:00:00+00:00</time>
        <ele>1713.0</ele>
      </trkpt>
      <trkpt lat="46.960144" lon="10.401547">
        <time>1970-01-01T00:00:00+00:00</time>
        <ele>1712.0</ele>
      </trkpt>
      <trkpt lat="46.959941" lon="10.401641">
        <time>1970-01-01T00:00:00+00:00</time>
        <ele>1710.0</ele>
      </trkpt>
    </trkseg>
  </trk>
</gpx>
